Location: Steilacoom
(47.1700°N, 122.5700°W)
Time: 13:49:27
(UTC-08:00)

ISS - Pass Details

Date: 25 November 2019
Orbit: 411 x 421 km, 51.6° (Epoch: 13 December)

Event Time Altitude Azimuth Distance (km) Brightness Sun altitude
Rises 17:53:34 0° 236° (SW) 2,347 1.5 -14.5°
Reaches altitude 10° 17:55:40 10° 233° (SW) 1,489 0.2 -14.9°
Maximum altitude 17:58:59 67° 151° (SSE) 455 -3.7 -15.4°
Enters shadow 18:00:08 37° 80° (E) 670 -3.3 -15.6°
